GW0075 Weather Reports


Display with metric or nautical units.
time (UTC)temp
F
wind
direction
speed
MPH
gust
MPH
rain 1hr
in
rain 24hr
in
rain mn
in
humidity
%
barometer
mb
20260905223010 76 141 0.0 0.0 0.00 0.73 0.73 85 1010.2
20260905221606 76 290 0.0 0.0 0.00 0.73 0.73 85 1010.4
20260905204557 73 300 0.0 0.0 0.00 0.73 0.73 78 1011.0
20260905200033 72 127 0.0 1.0 0.01 0.73 0.73 80 1011.3
20260905194501 72 79 0.0 0.0 0.72 0.73 0.73 81 1011.9
20260905193036 72 90 0.0 1.0 0.73 0.73 0.73 85 1011.5
20260905191542 72 110 0.0 1.0 0.73 0.73 0.73 86 1011.7
20260905184539 80 19 1.0 13.0 0.01 0.01 0.01 75 1011.7
20260905183038 93 272 3.0 12.0 0.00 0.00 0.00 51 1011.1
20260905181510 97 152 1.0 6.0 0.00 0.00 0.00 44 1010.3
20260905180042 97 295 1.0 6.0 0.00 0.00 0.00 45 1010.8
20260905174512 98 209 0.0 2.0 0.00 0.00 0.00 49 1010.9
20260905143050 86 217 0.0 3.0 0.00 0.00 0.00 69 1012.8
20260905140016 84 217 0.0 4.0 0.00 0.00 0.00 76 1013.1
20260905134553 83 226 0.0 3.0 0.00 0.00 0.00 78 1013.3
20260905133020 81 225 0.0 0.0 0.00 0.00 0.00 84 1013.3
20260905131659 79 317 0.0 2.0 0.00 0.00 0.00 85 1013.4
20260905130027 78 315 0.0 2.0 0.00 0.00 0.00 86 1013.2
20260905124602 77 80 0.0 0.0 0.00 0.00 0.00 87 1013.2
20260905123021 75 80 0.0 0.0 0.00 0.00 0.00 83 1013.1
20260905121544 74 80 0.0 0.0 0.00 0.00 0.00 81 1013.1
20260905120013 73 80 0.0 0.0 0.00 0.00 0.00 79 1013.1
20260905114545 73 80 0.0 0.0 0.00 0.00 0.00 80 1013.0
20260905113016 73 80 0.0 0.0 0.00 0.00 0.00 80 1012.7
20260905111559 73 80 0.0 0.0 0.00 0.00 0.00 80 1012.6
20260905110005 73 80 0.0 0.0 0.00 0.00 0.00 80 1012.5
20260905104535 73 80 0.0 0.0 0.00 0.00 0.00 81 1012.4
20260905103059 73 80 0.0 0.0 0.00 0.00 0.00 83 1012.2
20260905101533 73 80 0.0 0.0 0.00 0.00 0.00 85 1012.1
20260905100101 73 86 0.0 1.0 0.00 0.00 0.00 87 1012.0
20260905094524 73 104 0.0 0.0 0.00 0.00 0.00 87 1011.9
20260905093054 73 105 0.0 0.0 0.00 0.00 0.00 87 1012.0
20260905091519 74 104 0.0 0.0 0.00 0.00 0.00 87 1012.0
20260905090044 74 104 0.0 0.0 0.00 0.00 0.00 87 1012.0
20260905084513 74 104 0.0 0.0 0.00 0.00 0.00 87 1012.0
20260905083040 75 105 0.0 0.0 0.00 0.00 0.00 87 1012.1
20260905081559 74 104 0.0 0.0 0.00 0.00 0.00 87 1012.2
20260905080038 74 104 0.0 0.0 0.00 0.00 0.00 87 1012.3
20260905074558 75 104 0.0 0.0 0.00 0.00 0.00 87 1012.3
20260905073019 75 105 0.0 0.0 0.00 0.00 0.00 87 1012.4
20260905071552 75 104 0.0 0.0 0.00 0.00 0.00 87 1012.2
20260905070009 75 104 0.0 0.0 0.00 0.00 0.00 87 1012.3